User: anonymous   Login
Location: Ladysmith
(45.4630°N, 91.1040°W)
Time: 12:15:45
(UTC-05:00)
Language:

SO-67 - Orbit

View from above orbital plane
View from above orbital plane
View from above satellite
View from above satellite

Ground track
Ground track

The orbit data is extracted from the following two-line orbital elements,

1 35870U 09049F   18111.14479409  .00005721  00000-0  79763-4 0  9996
2 35870  97.0856 130.5819 0003082  49.8019 350.6548 15.57307205481099
Epoch (UTC): 21 April 2018 03:28:30
Eccentricity: 0.0003082
inclination: 97.0856°
perigee height: 393 km
apogee height: 397 km
right ascension of ascending node: 130.5819°
argument of perigee: 49.8019°
revolutions per day: 15.57307205
mean anomaly at epoch: 350.6548°
orbit number at epoch: 48109

The dashed part of the orbit path shows where the satellite is in the earth's shadow,  

DLR